Weather History for San Jose, CA

Change the Weather History Date:

Saturday, January 11, 2014

  Actual Average Record
Temperature  
Mean Temperature 51 °F 51 °F  
Max Temperature 59 °F 59 °F 72 °F (2009)
Min Temperature 43 °F 42 °F 24 °F (1949)
Degree Days  
Heating Degree Days 14 14  
Month to date heating degree days 145 154  
Since 1 July heating degree days 1052 891  
Cooling Degree Days 0 0  
Month to date cooling degree days 0 0  
Year to date cooling degree days 0 0  
Growing Degree Days 2 (Base 50)    
Moisture  
Dew Point 44 °F    
Average Humidity 78    
Maximum Humidity 93    
Minimum Humidity 62    
Precipitation  
Precipitation 0.00 in 0.12 in 1.39 in (1952)
Month to date precipitation 0.01 1.18  
Year to date precipitation 0.01 1.18  
Since 1 July precipitation 1.57 6.19  
Sea Level Pressure  
Sea Level Pressure 30.23 in    
Wind  
Wind Speed 3 mph (North)    
Max Wind Speed 20 mph    
Max Gust Speed 24 mph    
Visibility 10 miles    
Events      
T = Trace of Precipitation, MM = Missing Value Source: NWS Daily Summary

Daily Weather History Graph

Daily Weather History Graph

Search for Another Location

Airport:

Trip Planner

Search our weather history database for the weather conditions in past years. The results will help you decide how hot, cold, wet, or windy it might be!

Date:

Astronomy

Jan. 11, 2014 Rise Set
Actual Time 7:21 AM PST 5:09 PM PST
Civil Twilight 6:53 AM PST 5:38 PM PST
Nautical Twilight 6:20 AM PST 6:10 PM PST
Astronomical Twilight 5:49 AM PST 6:42 PM PST
Moon 1:56 PM PST (1/11) 3:32 AM PST (1/11)
Length of Visible Light 10h 45m
Length of Day
9h 48m
Waxing Gibbous, 84% of the Moon is Illuminated
Jan 11
Waxing Gibbous
Jan 15
Full
Jan 23
Last Quarter
Jan 30
New
Feb 6
First Quarter

Hourly Weather History & Observations

Time (PST) Temp. Windchill Dew Point Humidity Pressure Visibility Wind Dir Wind Speed Gust Speed Precip Events Conditions
12:53 AM 46.0 °F - 41.0 °F 83% 30.19 in 10.0 mi Calm Calm - N/A   Clear
1:53 AM 46.0 °F - 42.1 °F 86% 30.20 in 10.0 mi Calm Calm - N/A   Clear
2:53 AM 44.1 °F - 41.0 °F 89% 30.20 in 10.0 mi Calm Calm - N/A   Clear
3:53 AM 44.1 °F 42.5 °F 41.0 °F 89% 30.20 in 10.0 mi ESE 3.5 mph - N/A   Clear
4:53 AM 44.1 °F - 39.9 °F 85% 30.21 in 10.0 mi Calm Calm - N/A   Clear
5:53 AM 44.1 °F 42.5 °F 39.9 °F 85% 30.20 in 10.0 mi ESE 3.5 mph - N/A   Partly Cloudy
6:53 AM 45.0 °F 41.8 °F 39.9 °F 82% 30.22 in 10.0 mi NW 5.8 mph - N/A   Mostly Cloudy
7:53 AM 46.9 °F - 43.0 °F 86% 30.24 in 10.0 mi Calm Calm - N/A   Mostly Cloudy
8:53 AM 46.9 °F - 42.1 °F 83% 30.26 in 10.0 mi SE 6.9 mph - N/A   Mostly Cloudy
9:53 AM 50.0 °F - 44.1 °F 80% 30.25 in 10.0 mi Calm Calm - N/A   Mostly Cloudy
10:53 AM 53.1 °F - 44.1 °F 71% 30.22 in 10.0 mi Calm Calm - N/A   Overcast
11:53 AM 54.0 °F - 46.0 °F 75% 30.22 in 10.0 mi NNE 4.6 mph - N/A   Overcast
12:53 PM 55.9 °F - 45.0 °F 67% 30.21 in 10.0 mi Calm Calm - N/A   Overcast
1:53 PM 57.9 °F - 46.9 °F 67% 30.17 in 10.0 mi Calm Calm - N/A   Overcast
2:53 PM 59.0 °F - 46.9 °F 64% 30.17 in 10.0 mi Calm Calm - N/A   Overcast
3:53 PM 59.0 °F - 48.9 °F 69% 30.20 in 10.0 mi West 11.5 mph - N/A   Overcast
4:53 PM 57.9 °F - 50.0 °F 75% 30.22 in 10.0 mi NNW 11.5 mph - N/A   Overcast
5:53 PM 53.1 °F - 46.0 °F 77% 30.22 in 10.0 mi NW 10.4 mph - N/A   Scattered Clouds
6:53 PM 51.1 °F - 46.9 °F 86% 30.25 in 10.0 mi NW 5.8 mph - N/A   Partly Cloudy
7:53 PM 50.0 °F - 46.9 °F 89% 30.27 in 10.0 mi Calm Calm - N/A   Partly Cloudy
8:53 PM 48.9 °F - 46.0 °F 90% 30.29 in 10.0 mi Calm Calm - N/A   Partly Cloudy
9:53 PM 48.9 °F - 46.9 °F 93% 30.30 in 10.0 mi Calm Calm - N/A   Mostly Cloudy
10:53 PM 46.9 °F - 44.1 °F 90% 30.30 in 10.0 mi Calm Calm - N/A   Scattered Clouds
11:53 PM 46.0 °F - 44.1 °F 93% 30.28 in 10.0 mi Calm Calm - N/A   Scattered Clouds